PROBA-V

Last updated on Sun Jun 21 2026 00:03:42 GMT+0000 (Coordinated Universal Time)

1 39159U 13021A 26171.42253878 .00000052 00000+0 40931-4 0 9997 2 39159 98.3585 149.8695 0005260 115.9586 244.2136 14.23597564681572
UTC large
Height (km)
Speed (km/s)
/
Latitude / Longitude
Inclination (degrees)
Orbital Period (minutes)
Azimuth
Elevation
Range (km)
Doppler Factor

Next 0 passes for location: London (51.5072 / 0.1276)

No passes found over London.
PROBA-V